Tracking 23762 objects as of 22-Oct-2021
HD Live streaming from Space Station
objects crossing your sky now

LEMUR-2-DAYWZAGOODDAY

Track LEMUR-2-DAYWZAGOODDAY now!
10-day predictions
LEMUR-2-DAYWZAGOODDAY is classified as:


NORAD ID: 46501
Int'l Code: 2020-068R
Perigee: 554.3 km
Apogee: 573.4 km
Inclination: 97.7 °
Period: 95.8 minutes
Semi major axis: 6934 km
RCS: Unknown
Launch date: September 28, 2020
Source: United States (US)
Launch site: PLESETSK MISSILE AND SPACE COMPLEX (PKMTR)
aabbcc
Your satellite tracking list
Your tracking list is empty




NASA's NSSDC Master Catalog

Two Line Element Set (TLE):
1 46501U 20068R   21294.56482917  .00002765  00000-0  20810-3 0  9996
2 46501  97.6970 230.8271 0013755  27.4916 332.7011 15.03293646 58198
Source of the keplerian elements: AFSPC